This is the latest recevied weather packets stored in our database for station/object HB9FHL-13. If no packets are shown the sender has not sent any weather packets the latest 10 day(s).
| Time | Temp. | Humidity | Pressure | Rain* | Wind** | Luminosity | Snow |
|---|---|---|---|---|---|---|---|
| 1777921741 | 12.78° C | - | 1012.2 hPa | 0 mm | - | - | - |
| 1777921441 | 12.22° C | - | 1010.4 hPa | 0 mm | - | - | - |
| 1777921140 | 12.22° C | - | 1013.5 hPa | 0 mm | - | - | - |
| 1777920840 | 12.78° C | - | 1015 hPa | 0 mm | - | - | - |
| 1777920540 | 12.78° C | - | 1015.9 hPa | 0 mm | - | - | - |
| 1777920239 | 12.78° C | - | 1013.7 hPa | 0 mm | - | - | - |
| 1777919939 | 12.78° C | - | 1011 hPa | 0 mm | - | - | - |
| 1777919637 | 13.33° C | - | 1013.6 hPa | 0 mm | - | - | - |
| 1777919337 | 13.33° C | - | 1012.7 hPa | 0 mm | - | - | - |
| 1777919036 | 12.78° C | - | 1016.4 hPa | 0 mm | - | - | - |
| 1777918736 | 13.33° C | - | 1014.4 hPa | 0 mm | - | - | - |
| 1777918435 | 13.33° C | - | 1010.7 hPa | 0 mm | - | - | - |
| 1777918135 | 13.33° C | - | 1010.4 hPa | 0 mm | - | - | - |
| 1777917834 | 13.33° C | - | 1014.4 hPa | 0 mm | - | - | - |
| 1777917534 | 13.33° C | - | 1015.3 hPa | 0 mm | - | - | - |
| 1777917233 | 13.33° C | - | 1011.8 hPa | 0 mm | - | - | - |
| 1777916930 | 13.89° C | - | 1014.5 hPa | 0 mm | - | - | - |
| 1777916629 | 13.89° C | - | 1009 hPa | 0 mm | - | - | - |
| 1777916329 | 14.44° C | - | 1013.7 hPa | 0 mm | - | - | - |
| 1777916028 | 13.89° C | - | 1019.1 hPa | 0 mm | - | - | - |
| 1777915728 | 15° C | - | 1014.5 hPa | 0 mm | - | - | - |
| 1777915427 | 13.89° C | - | 1010 hPa | 0 mm | - | - | - |
| 1777915125 | 13.89° C | - | 1016.7 hPa | 0 mm | - | - | - |
| 1777914825 | 14.44° C | - | 1013 hPa | 0 mm | - | - | - |
| 1777914524 | 13.89° C | - | 1010.3 hPa | 0 mm | - | - | - |
* Rain since midnight (hover to see other rain measurements)
** Current wind speed in m/s (hover to see current wind gust speed)